Regional Weather Roundup
Issued by NWS

Home | Current Version | Previous Version | Graphics & Text | Print | Product List | Glossary On
Versions: 1 2 3 4 5 6 7 8 9 10 11 12 13 14 15 16 17 18 19 20 21 22 23 24 25 26 27 28 29 30 31 32 33 34 35 36 37 38 39 40 41 42 43 44 45 46 47 48 49 50
000
ASUS43 KTOP 220759
RWRKS

WEATHER ROUNDUP FOR KANSAS
NATIONAL WEATHER SERVICE GOODLAND KS
300 AM CDT WED OCT 22 2014

NOTE:  "FAIR" INDICATES FEW OR NO CLOUDS BELOW 12,000 FEET WITH NO
SIGNIFICANT WEATHER AND/OR OBSTRUCTIONS TO VISIBILITY.

KSZ001>006-013>018-027>032-041>047-220900-
NORTHWEST KANSAS

CITY           SKY/WX    TMP DP  RH WIND       PRES   REMARKS
GOODLAND       PTCLDY    52  47  83 S12       29.95F
HAYS           CLEAR     55  48  76 S7        30.00S
HILL CITY      CLEAR     62  52  69 S9        29.97F
RUSSELL        CLEAR     57  54  89 S9        30.00R
$$

KSZ061>065-074>080-084>089-220900-
SOUTHWEST KANSAS

CITY           SKY/WX    TMP DP  RH WIND       PRES   REMARKS
DODGE CITY     CLEAR     59  49  69 S12       30.03R
ELKHART          N/A     56  47  72 S10         N/A
GARDEN CITY    CLEAR     58  49  72 S14       30.00F
GREAT BEND     CLEAR     61  52  72 S9        30.02R
LIBERAL        PTCLDY    57  46  67 S12       30.04S
$$

KSZ066>073-081>083-090>101-220900-
SOUTHEAST KANSAS

CITY           SKY/WX    TMP DP  RH WIND       PRES   REMARKS
CHANUTE        CLEAR     56  49  77 E8        30.09S
COFFEYVILLE    CLEAR     56  52  86 CALM      30.09R
HUTCHINSON     CLEAR     60  57  89 SE7       30.04R
NEWTON         CLEAR     57  52  82 SE8       30.07S
PARSONS        CLEAR     61  53  75 VRB5      30.11R
WICHITA INTL   PTCLDY    63  58  83 S9        30.05R
WICHITA JABRA  CLEAR     61  58  90 S8        30.05R
WINFIELD       CLEAR     63  59  87 S7        30.07R
$$

KSZ007>012-019>026-033>040-048>060-102>105-220900-
NORTHEAST KANSAS

CITY           SKY/WX    TMP DP  RH WIND       PRES   REMARKS
CONCORDIA      CLEAR     60  56  86 S15       30.03R
EMPORIA        CLEAR     55  49  80 SE8       30.08R
LAWRENCE       CLEAR     50  44  80 E7        30.12R
MANHATTAN      CLEAR     60  49  66 CALM      30.06R
OLATHE IND     PTCLDY    56  46  69 SE10      30.13R
OLATHE EXE     CLOUDY    56  46  69 SE9       30.12S
SALINA         CLEAR     63  57  81 SE10      30.03R
TOPEKA BILLARD CLEAR     55  46  71 E5        30.10R
TOPEKA FORBES  CLEAR     56  45  66 SE9       30.09R
$$



USA.gov is the U.S. government's official web portal to all federal, state and local government web resources and services.